• Join FlightAware (Why Join?)
  • Login
  • US Flag 
05:19PM EDT


 

Airport Tracker/Info


-or-


 

Live Flight TrackerFlight Track Log ✈ N233NC ✈ 19-Apr-2013 ✈ KANE - KSTP

Flight Track Log - Related Links

Times and Time Zones

All times are in EDT time to prevent confusion due to time zone crossing. See the N233NC flight status page for this flight to view local times or setup timezone preferences in your user account.

Time Position Orientation Groundspeed Altitude Reporting Facility
EDT Latitude Longitude Course Direction KTS MPH feet Rate Location/Type
04:49PM 45.1589 -93.1928 152° Southeast 103 119 2,200  Level FAA TRACON SMA TRACON (SMA)
04:50PM 45.1572 -93.1794 100° East 110 127 2,600 1,140 Climbing FAA TRACON SMA TRACON (SMA)
04:50PM 45.1542 -93.1608 103° East 121 139 3,000 540 Climbing FAA TRACON SMA TRACON (SMA)
04:50PM 45.1517 -93.1378 99° East 144 166 3,000  Level FAA TRACON SMA TRACON (SMA)
04:51PM 45.1500 -93.1228 99° East 161 185 3,000  Level FAA TRACON SMA TRACON (SMA)
04:51PM 45.1458 -93.0967 103° East 175 201 3,000  Level FAA TRACON SMA TRACON (SMA)
04:51PM 45.1389 -93.0775 117° Southeast 181 208 3,000  Level FAA TRACON SMA TRACON (SMA)
04:52PM 45.1314 -93.0569 117° Southeast 185 213 3,000  Level FAA TRACON SMA TRACON (SMA)
04:52PM 45.1225 -93.0333 118° Southeast 181 208 3,000  Level FAA TRACON SMA TRACON (SMA)
04:52PM 45.1156 -93.0144 118° Southeast 179 206 3,000  Level FAA TRACON SMA TRACON (SMA)
04:53PM 45.1044 -92.9981 134° Southeast 187 215 3,000  Level FAA TRACON SMA TRACON (SMA)
04:53PM 45.0867 -92.9850 153° Southeast 188 216 3,000  Level FAA TRACON SMA TRACON (SMA)
04:53PM 45.0733 -92.9747 151° Southeast 184 212 3,000  Level FAA TRACON SMA TRACON (SMA)
04:54PM 45.0583 -92.9633 152° Southeast 186 214 3,000  Level FAA TRACON SMA TRACON (SMA)
04:54PM 45.0411 -92.9497 151° Southeast 187 215 3,000 -180 Level FAA TRACON SMA TRACON (SMA)
04:54PM 45.0264 -92.9386 152° Southeast 190 219 2,900 -480 Descending FAA TRACON SMA TRACON (SMA)
04:55PM 44.9987 -93.1059 152° Southeast  Level Estimated
04:55PM 45.0119 -92.9269 150° Southeast 194 223 2,700  Level FAA TRACON SMA TRACON (SMA)
04:55PM 44.9931 -92.9122 151° Southeast 202 232 2,500 -300 Descending FAA TRACON SMA TRACON (SMA)
04:55PM 44.9783 -92.9006 151° Southeast 200 230 2,500  Level FAA TRACON SMA TRACON (SMA)
04:56PM 44.9639 -92.8892 151° Southeast 195 224 2,500  Level FAA TRACON SMA TRACON (SMA)
04:56PM 44.9503 -92.8775 149° Southeast 190 219 2,500  Level FAA TRACON SMA TRACON (SMA)
04:56PM 44.9317 -92.8622 150° Southeast 193 222 2,500  Level FAA TRACON SMA TRACON (SMA)
04:57PM 44.9183 -92.8506 148° Southeast 191 220 2,500  Level FAA TRACON SMA TRACON (SMA)
04:57PM 44.9033 -92.8486 175° South 190 219 2,500  Level FAA TRACON SMA TRACON (SMA)
04:57PM 44.8833 -92.8506 184° South 184 212 2,500  Level FAA TRACON SMA TRACON (SMA)
04:58PM 44.8692 -92.8517 183° South 172 198 2,500  Level FAA TRACON SMA TRACON (SMA)
04:58PM 44.8561 -92.8547 189° South 165 190 2,500  Level FAA TRACON SMA TRACON (SMA)
04:58PM 44.8439 -92.8647 210° Southwest 142 163 2,500  Level FAA TRACON SMA TRACON (SMA)
04:59PM 44.8339 -92.8719 207° Southwest 132 152 2,500  Level FAA TRACON SMA TRACON (SMA)
04:59PM 44.8242 -92.8797 210° Southwest 127 146 2,500  Level FAA TRACON SMA TRACON (SMA)
04:59PM 44.8131 -92.8883 209° Southwest 122 140 2,500  Level FAA TRACON SMA TRACON (SMA)
05:00PM 44.8039 -92.8992 220° Southwest 132 152 2,500  Level FAA TRACON SMA TRACON (SMA)
05:00PM 44.8064 -92.9269 277° West 106 122 2,500  Level FAA TRACON SMA TRACON (SMA)
05:01PM 44.8078 -92.9403 278° West 110 127 2,500  Level FAA TRACON SMA TRACON (SMA)
05:01PM 44.8111 -92.9519 292° West 113 130 2,500  Level FAA TRACON SMA TRACON (SMA)
05:01PM 44.8214 -92.9569 341° North 107 123 2,500  Level FAA TRACON SMA TRACON (SMA)
05:02PM 44.8292 -92.9606 342° North 98 113 2,500  Level FAA TRACON SMA TRACON (SMA)
05:02PM 44.8369 -92.9553 26° Northeast 110 127 2,500  Level FAA TRACON SMA TRACON (SMA)
05:02PM 44.8453 -92.9361 58° Northeast 142 163 2,500  Level FAA TRACON SMA TRACON (SMA)
05:03PM 44.8469 -92.9178 83° East 156 180 2,500  Level FAA TRACON SMA TRACON (SMA)
05:03PM 44.8444 -92.8981 100° East 167 192 2,500  Level FAA TRACON SMA TRACON (SMA)
05:03PM 44.8389 -92.8739 108° East 174 200 2,500  Level FAA TRACON SMA TRACON (SMA)
05:04PM 44.8253 -92.8669 160° South 184 212 2,500  Level FAA TRACON SMA TRACON (SMA)
05:04PM 44.8111 -92.8758 204° Southwest 186 214 2,500  Level FAA TRACON SMA TRACON (SMA)
05:04PM 44.8064 -92.8942 250° West 163 188 2,500  Level FAA TRACON SMA TRACON (SMA)
05:05PM 44.8050 -92.9092 263° West 133 153 2,500  Level FAA TRACON SMA TRACON (SMA)
05:05PM 44.8067 -92.9211 281° West 110 127 2,500  Level FAA TRACON SMA TRACON (SMA)
05:05PM 44.8078 -92.9322 278° West 96 110 2,500  Level FAA TRACON SMA TRACON (SMA)
05:06PM 44.8114 -92.9442 293° West 94 108 2,500  Level FAA TRACON SMA TRACON (SMA)
05:06PM 44.8167 -92.9497 323° Northwest 85 98 2,500  Level FAA TRACON SMA TRACON (SMA)
05:06PM 44.8225 -92.9547 329° Northwest 81 93 2,500  Level FAA TRACON SMA TRACON (SMA)
05:07PM 44.8292 -92.9606 328° Northwest 74 85 2,500  Level FAA TRACON SMA TRACON (SMA)
05:07PM 44.8339 -92.9650 326° Northwest 71 82 2,500  Level FAA TRACON SMA TRACON (SMA)
05:07PM 44.8386 -92.9694 326° Northwest 70 81 2,500  Level FAA TRACON SMA TRACON (SMA)
05:08PM 44.8450 -92.9753 327° Northwest 71 82 2,500  Level FAA TRACON SMA TRACON (SMA)
05:08PM 44.8506 -92.9806 326° Northwest 79 91 2,500  Level FAA TRACON SMA TRACON (SMA)
05:08PM 44.8561 -92.9861 325° Northwest 79 91 2,500 -300 Level FAA TRACON SMA TRACON (SMA)
05:09PM 44.8636 -92.9931 327° Northwest 84 97 2,300 -600 Descending FAA TRACON SMA TRACON (SMA)
05:09PM 44.8694 -92.9989 325° Northwest 84 97 2,100 -480 Descending FAA TRACON SMA TRACON (SMA)
05:09PM 44.8747 -93.0039 326° Northwest 77 89 2,000 -480 Descending FAA TRACON SMA TRACON (SMA)
05:10PM 44.8814 -93.0097 328° Northwest 70 81 1,800 -480 Descending FAA TRACON SMA TRACON (SMA)
05:10PM 44.8856 -93.0142 323° Northwest 63 72 1,700 -300 Descending FAA TRACON SMA TRACON (SMA)
05:10PM 44.8900 -93.0189 323° Northwest 65 75 1,600 -480 Descending FAA TRACON SMA TRACON (SMA)
05:11PM 44.8969 -93.0247 329° Northwest 75 86 1,400 -480 Descending FAA TRACON SMA TRACON (SMA)
05:11PM 44.9033 -93.0308 326° Northwest 84 97 1,300 -360 Descending FAA TRACON SMA TRACON (SMA)
05:11PM 44.9092 -93.0367 325° Northwest 85 98 1,200 -480 Descending FAA TRACON SMA TRACON (SMA)
05:12PM 44.9133 -93.0406 327° Northwest 81 93 1,000 -600 Descending FAA TRACON SMA TRACON (SMA)